Find Local Weather

World > North America > United States > Arizona

Prescott Valley, Arizona Regional Weather

Lat: 34.61N, Lon: 112.32W
Wx Zone: AZZ008
Feedback
Expires:201804212000;;294589
ASUS45 KPSR 211910
RWRAZ 

ARIZONA HOURLY REGIONAL WEATHER ROUNDUP
NATIONAL WEATHER SERVICE PHOENIX AZ
1200 PM MST SAT APR 21 2018

NOTE: FAIR INDICATES FEW OR NO CLOUDS BELOW 12,000 FEET WITH NO
SIGNIFICANT WEATHER AND/OR OBSTRUCTIONS TO VISIBILITY.


AZZ004>008-015-016-018-212000-
NORTH CENTRAL ARIZONA
  
CITY           SKY/WX    TMP DP  RH WIND       PRES   REMARKS
GRAND CANYON   SUNNY     61  24  24 VRB5      30.22F                  
WILLIAMS       SUNNY     61  19  20 N13G18    30.22F                  
PRESCOTT       SUNNY     68  24  19 N10       30.18F                  
FLAGSTAFF      SUNNY     59  25  27 SW6       30.23F                  
PAYSON         SUNNY     68  25  19 VRB5G15   30.15F                  
PAGE           SUNNY     65  34  31 E5        30.16F                  
$$


SKY/WX - Weather  TMP - Temperature  DP - Dewpoint  RH - Relative Humidity
WIND - Wind Direction/Speed PRES - Barometric Pressure